Location: Rio Tanui
(39.9167°N, 8.5167°E)
Time: 11:10:09
(UTC+00:00)

Meteor 2-2 Rocket - Visible Passes

Search period start: 18 June 2024 00:00
Search period end: 28 June 2024 00:00
Orbit: 851 x 928 km, 81.3° (Epoch: 17 June)

Date Brightness Start Highest point End Pass type
(mag) Time Alt. Az. Time Alt. Az. Time Alt. Az.
18 Jun 6.9 01:32:03 10° NNE 01:35:08 15° ENE 01:38:11 10° E visible
18 Jun 4.2 03:13:53 10° NNW 03:19:29 71° W 03:25:04 10° S visible
19 Jun 6.8 01:31:20 10° NNE 01:34:57 17° ENE 01:38:32 10° ESE visible
19 Jun 4.3 03:13:37 10° NNW 03:19:10 61° W 03:24:42 10° S visible
20 Jun 6.6 01:30:42 10° NNE 01:34:45 20° ENE 01:38:46 10° ESE visible
20 Jun 4.4 03:13:23 10° NNW 03:18:50 52° W 03:24:16 10° S visible
21 Jun 6.4 01:30:08 10° NNE 01:34:32 23° ENE 01:38:54 10° ESE visible
21 Jun 4.6 03:13:11 10° NNW 03:18:29 45° W 03:23:48 10° SSW visible
22 Jun 6.2 01:29:38 10° NNE 01:34:19 26° ENE 01:38:58 10° SE visible
22 Jun 4.8 03:12:59 10° NNW 03:18:09 38° W 03:23:19 10° SSW visible
23 Jun 5.9 01:29:09 10° NNE 01:34:04 30° ENE 01:38:59 10° SE visible
23 Jun 5.0 03:12:49 10° NNW 03:17:47 33° W 03:22:45 10° SSW visible
24 Jun 5.7 01:28:42 10° N 01:33:50 35° ENE 01:38:57 10° SE visible
24 Jun 5.2 03:12:42 10° NNW 03:17:25 28° W 03:22:10 10° SSW visible
25 Jun 5.4 01:28:17 10° N 01:33:35 40° ENE 01:38:52 10° SE visible
25 Jun 5.4 03:12:36 10° NW 03:17:03 25° W 03:21:30 10° SW visible
26 Jun 5.1 01:27:53 10° N 01:33:19 47° ENE 01:38:45 10° SSE visible
26 Jun 5.6 03:12:33 10° NW 03:16:39 21° W 03:20:47 10° SW visible
27 Jun 4.8 01:27:30 10° N 01:33:03 55° ENE 01:37:45 14° SSE visible
27 Jun 5.7 03:12:35 10° NW 03:16:16 18° W 03:19:59 10° SW visible
